Caldwell, NJ

2:14 PM EDT on May 26, 2017 (GMT -0400)
Essex County

Weather History for KCDW - February, 2012

Change the Weather History Date:

Thursday, February 9, 2012

  Actual Average Record
Temperature  
Mean Temperature 36 °F -  
Max Temperature 46 °F 36 °F 58 °F (1965)
Min Temperature 26 °F 17 °F -6 °F (1963)
Degree Days  
Heating Degree Days 29    
Moisture  
Dew Point 21 °F    
Average Humidity 62    
Maximum Humidity 93    
Minimum Humidity 25    
Precipitation  
Precipitation 0.00 in - - ()
Sea Level Pressure  
Sea Level Pressure 30.13 in    
Wind  
Wind Speed 2 mph (WNW)    
Max Wind Speed 12 mph    
Max Gust Speed 17 mph    
Visibility 8 miles    
Events Snow    
Averages and records for this station are not official NWS values.
T = Trace of Precipitation, MM = Missing Value Source: NWS Daily Summary

Daily Weather History Graph

Daily Weather History Graph

Search for Another Location

Airport or City:

Trip Planner

Search our weather history database for the weather conditions in past years. The results will help you decide how hot, cold, wet, or windy it might be!

Date:

Astronomy

Feb. 09, 2012 Rise Set
Actual Time 6:59 AM EST 5:23 PM EST
Civil Twilight 6:30 AM EST 5:52 PM EST
Nautical Twilight 5:58 AM EST 6:24 PM EST
Astronomical Twilight 5:26 AM EST 6:56 PM EST
Moon 7:50 PM EST (2/9) 7:32 AM EST (2/9)
Length of Visible Light 11h 21m
Length of Day
10h 24m
Waning Gibbous, 96% of the Moon is Illuminated
Feb 9
Waning Gibbous
Feb 14
Last Quarter
Feb 21
New
Feb 29
First Quarter
Mar 8
Full

Hourly Weather History & Observations

Time (EST) Temp. Windchill Dew Point Humidity Pressure Visibility Wind Dir Wind Speed Gust Speed Precip Events Conditions
12:04 AM 30.2 °F - 28.4 °F 93% 30.11 in 2.5 mi Calm Calm - 0.00 in Snow Light Snow
12:28 AM 30.2 °F - 28.4 °F 93% 30.10 in 2.5 mi Calm Calm - 0.00 in Snow Light Snow
12:53 AM 30.0 °F - 28.0 °F 92% 30.12 in 4.0 mi Calm Calm - 0.00 in   Mostly Cloudy
1:53 AM 28.0 °F - 26.1 °F 92% 30.12 in 3.0 mi Calm Calm - N/A   Clear
2:53 AM 28.0 °F - 26.1 °F 92% 30.10 in 4.0 mi Calm Calm - N/A   Mostly Cloudy
3:53 AM 27.0 °F - 25.0 °F 92% 30.09 in 5.0 mi Calm Calm - N/A   Clear
4:53 AM 26.1 °F - 24.1 °F 92% 30.10 in 6.0 mi Calm Calm - N/A   Clear
5:53 AM 26.1 °F - 23.0 °F 88% 30.12 in 9.0 mi Calm Calm - N/A   Clear
6:53 AM 26.1 °F - 23.0 °F 88% 30.13 in 10.0 mi Calm Calm - N/A   Clear
7:53 AM 30.0 °F - 21.9 °F 72% 30.16 in 10.0 mi Calm Calm - N/A   Clear
8:53 AM 33.1 °F 26.1 °F 19.0 °F 56% 30.17 in 10.0 mi NW 8.1 mph - N/A   Clear
9:53 AM 35.1 °F 27.4 °F 19.9 °F 54% 30.17 in 10.0 mi NW 10.4 mph - N/A   Clear
10:53 AM 37.0 °F 29.3 °F 18.0 °F 46% 30.17 in 10.0 mi NW 11.5 mph - N/A   Clear
11:53 AM 39.9 °F 33.9 °F 16.0 °F 38% 30.15 in 10.0 mi WNW 9.2 mph 17.3 mph N/A   Clear
12:53 PM 43.0 °F 38.8 °F 15.1 °F 32% 30.12 in 10.0 mi NNW 6.9 mph - N/A   Clear
1:53 PM 45.0 °F 43.5 °F 15.1 °F 30% 30.10 in 10.0 mi Variable 3.5 mph - N/A   Clear
2:53 PM 46.0 °F 43.1 °F 16.0 °F 30% 30.10 in 10.0 mi Variable 5.8 mph - N/A   Clear
3:53 PM 46.9 °F - 12.9 °F 25% 30.11 in 10.0 mi West 6.9 mph - N/A   Clear
4:53 PM 46.0 °F 43.9 °F 14.0 °F 28% 30.12 in 10.0 mi WSW 4.6 mph - N/A   Clear
5:53 PM 42.1 °F 39.2 °F 19.0 °F 40% 30.13 in 10.0 mi SW 4.6 mph - N/A   Clear
6:53 PM 39.9 °F 37.8 °F 19.9 °F 45% 30.15 in 10.0 mi West 3.5 mph - N/A   Clear
7:53 PM 37.9 °F 35.5 °F 19.9 °F 48% 30.16 in 10.0 mi SW 3.5 mph - N/A   Clear
8:53 PM 35.1 °F - 19.9 °F 54% 30.17 in 10.0 mi Calm Calm - N/A   Clear
9:53 PM 32.0 °F - 19.9 °F 61% 30.17 in 10.0 mi Calm Calm - N/A   Clear
10:53 PM 28.9 °F - 19.9 °F 69% 30.17 in 10.0 mi Calm Calm - N/A   Clear
11:53 PM 28.9 °F - 19.9 °F 69% 30.18 in 10.0 mi Calm Calm - N/A   Clear